Hourly Data Report for October 26, 2013

All times are specified in Local Standard Time (LST). Add 1 hour to adjust for Daylight Saving Time where and when it is observed.

CAPE DORSET A
NUNAVUT

64°13'49.000" N
76°31'30.000" W
48.20 m
2400637
71366
YTE

Download Data

Hourly Data (October 2013)
Hourly Data Report for October 26, 2013
Temp Definition
°C
Dew Point Temp Definition
°C
Rel Hum Definition
%
Wind Dir Definition
10's deg

Wind Spd Definition
km/h
Visibility Definition
km
Stn Press Definition
kPa
Hmdx Definition


Wind Chill Definition


Weather Definition


TIME
00:00 Legend Double Dagger -2.6 -3.9 91 22 17 8.1 99.65   -8 LegendNANA
01:00 Legend Double Dagger -2.8 -3.9 92 20 22 4.8 99.62   -9 LegendNANA
02:00 Legend Double Dagger -2.5 -3.6 92 26 21 14.5 99.59   -9 LegendNANA
03:00 Legend Double Dagger -3.3 -4.7 90 29 26 16.1 99.62   -10 LegendNANA
04:00 Legend Double Dagger -3.7 -5.6 87 28 21 16.1 99.63   -10 LegendNANA
05:00 Legend Double Dagger -3.8 -6.1 84 29 17 16.1 99.63   -10 LegendNANA
06:00 Legend Double Dagger -4.9 -7.2 84 27 11 16.1 99.63   -9 LegendNANA
07:00 Legend Double Dagger -4.9 -6.8 86 29 11 16.1 99.63   -9 LegendNANA
08:00 Legend Double Dagger -5.7 -7.4 88 LegendMM 4 16.1 99.63   -8 LegendNANA
09:00 Legend Double Dagger -6.4 -7.9 89 24 8 16.1 99.61   -10 LegendNANA
10:00 Legend Double Dagger -5.4 -7.1 88 26 11 16.1 99.61   -10 LegendNANA
11:00 Legend Double Dagger -5.0 -6.8 88 28 13 16.1 99.59   -10 LegendNANA
12:00 Legend Double Dagger -5.3 -7.0 88 25 9 16.1 99.59   -9 LegendNANA
13:00 Legend Double Dagger -5.0 -6.8 87 26 11 16.1 99.60   -10 LegendNANA
14:00 Legend Double Dagger -4.4 -5.7 91 28 15 4.8 99.59   -10 LegendNANA
15:00 Legend Double Dagger -5.2 -6.0 94 27 8 8.1 99.62   -9 LegendNANA
16:00 Legend Double Dagger -5.9 -6.6 95   0 16.1 99.65     LegendNANA
17:00 Legend Double Dagger -6.5 -7.7 91 25 5 16.1 99.66   -9 LegendNANA
18:00 Legend Double Dagger -6.5 -8.0 89   0 16.1 99.66     LegendNANA
19:00 Legend Double Dagger -6.7 -8.4 88   0 16.1 99.67     LegendNANA
20:00 Legend Double Dagger -5.8 -8.4 82   0 16.1 99.68     LegendNANA
21:00 Legend Double Dagger -5.9 -8.5 82 13 5 16.1 99.66   -8 LegendNANA
22:00 Legend Double Dagger -5.7 -8.8 79 LegendMM 4 16.1 99.65   -8 LegendNANA
23:00 Legend Double Dagger -6.3 -8.0 88   0 16.1 99.66     LegendNANA

Notes on Data Quality.

Legend

  • E = Estimated
  • M = Missing
  • NA = Not Available
  • ‡ = Partner data that is not subject to review by the National Climate Archives
Date modified: